FW7685 Weather Reports


Display with metric or nautical units.
time (UTC)temp
F
wind
direction
speed
MPH
gust
MPH
rain 1hr
in
rain 24hr
in
rain mn
in
humidity
%
barometer
mb
20260506042323 48 324 1.0 3.0 0.00 0.00 0.00 58 1011.5
20260506041823 48 1 1.0 3.0 0.00 0.00 0.00 58 1011.5
20260506041724 48 306 2.0 3.0 0.00 0.00 0.00 59 1011.4
20260506040822 48 38 1.0 5.0 0.00 0.00 0.00 59 1011.4
20260506040322 48 8 1.0 5.0 0.00 0.00 0.00 59 1011.5
20260506035820 48 51 1.0 3.0 0.00 0.00 0.00 58 1011.5
20260506035322 48 341 1.0 3.0 0.00 0.00 0.00 58 1011.4
20260506034820 48 56 1.0 3.0 0.00 0.00 0.00 58 1011.4
20260506034717 48 314 2.0 3.0 0.00 0.00 0.00 58 1011.4
20260506033821 49 45 1.0 3.0 0.00 0.00 0.00 58 1011.4
20260506033322 49 45 1.0 4.0 0.00 0.00 0.00 58 1011.4
20260506032821 49 314 1.0 4.0 0.00 0.00 0.00 58 1011.4
20260506032321 49 296 1.0 4.0 0.00 0.00 0.00 58 1011.3
20260506031818 49 321 2.0 4.0 0.00 0.00 0.00 58 1011.4
20260506031716 49 344 2.0 4.0 0.00 0.00 0.00 58 1011.4
20260506030821 49 314 1.0 3.0 0.00 0.00 0.00 58 1011.4
20260506030320 49 321 1.0 3.0 0.00 0.00 0.00 58 1011.4
20260506025819 49 20 1.0 4.0 0.00 0.00 0.00 58 1011.4
20260506025321 49 20 1.0 6.0 0.00 0.00 0.00 58 1011.5
20260506024819 49 1 1.0 6.0 0.00 0.00 0.00 58 1011.4
20260506024322 50 142 1.0 2.0 0.00 0.00 0.00 59 1011.5
20260506023819 50 303 1.0 3.0 0.00 0.00 0.00 59 1011.4
20260506023322 50 28 1.0 5.0 0.00 0.00 0.00 59 1011.4
20260506022819 50 303 2.0 5.0 0.00 0.00 0.00 58 1011.4
20260506022320 50 178 1.0 4.0 0.00 0.00 0.00 59 1011.4
20260506021819 50 45 2.0 5.0 0.00 0.00 0.00 59 1011.4
20260506021320 50 324 1.0 5.0 0.00 0.00 0.00 59 1011.4
20260506020820 50 16 2.0 5.0 0.00 0.00 0.00 58 1011.5
20260506020319 50 35 1.0 3.0 0.00 0.00 0.00 58 1011.6
20260506015816 50 37 1.0 4.0 0.00 0.00 0.00 58 1011.5
20260506015318 50 23 1.0 4.0 0.00 0.00 0.00 58 1011.6
20260506014817 50 324 1.0 3.0 0.00 0.00 0.00 58 1011.5
20260506014318 50 32 1.0 4.0 0.00 0.00 0.00 57 1011.5
20260506013818 51 20 1.0 4.0 0.00 0.00 0.00 57 1011.6
20260506013319 51 348 2.0 5.0 0.00 0.00 0.00 57 1011.5
20260506012817 51 35 2.0 5.0 0.00 0.00 0.00 57 1011.5
20260506012319 51 32 2.0 3.0 0.00 0.00 0.00 56 1011.6
20260506011818 51 45 2.0 4.0 0.00 0.00 0.00 56 1011.6
20260506011319 51 306 2.0 4.0 0.00 0.00 0.00 56 1011.6
20260506010817 51 1 2.0 4.0 0.00 0.00 0.00 55 1011.7
20260506010317 51 1 2.0 4.0 0.00 0.00 0.00 55 1011.7
20260506005817 51 23 2.0 4.0 0.00 0.00 0.00 55 1011.8
20260506005645 51 38 2.0 4.0 0.00 0.00 0.00 55 1011.7
20260506004816 51 63 1.0 5.0 0.00 0.00 0.00 55 1011.7
20260506004323 51 348 2.0 5.0 0.00 0.00 0.00 55 1011.8
20260506003816 51 324 2.0 6.0 0.00 0.00 0.00 54 1011.8
20260506003318 51 38 2.0 6.0 0.00 0.00 0.00 54 1011.8
20260506002816 51 45 1.0 4.0 0.00 0.00 0.00 55 1011.8
20260506002318 52 45 2.0 4.0 0.00 0.00 0.00 55 1011.8
20260506001816 52 45 2.0 7.0 0.00 0.00 0.00 55 1011.8
20260506001317 52 309 2.0 7.0 0.00 0.00 0.00 55 1011.7
20260506000816 52 31 1.0 4.0 0.00 0.00 0.00 56 1011.8
20260506000317 52 45 2.0 4.0 0.00 0.00 0.00 56 1011.8
20260505235815 52 45 1.0 4.0 0.00 0.00 0.00 56 1011.7
20260505235317 52 28 2.0 5.0 0.00 0.00 0.00 55 1011.8
20260505234815 52 309 2.0 5.0 0.00 0.00 0.00 56 1011.8
20260505234315 53 324 1.0 4.0 0.00 0.00 0.00 56 1011.8
20260505234206 53 63 2.0 4.0 0.00 0.00 0.00 56 1011.7
20260505233714 53 45 1.0 6.0 0.00 0.00 0.00 56 1011.7
20260505232813 53 331 2.0 6.0 0.00 0.00 0.00 56 1011.6
20260505232315 53 38 2.0 6.0 0.00 0.00 0.00 56 1011.7
20260505231813 53 45 2.0 6.0 0.00 0.00 0.00 55 1011.6
20260505231311 53 56 2.0 7.0 0.00 0.00 0.00 55 1011.6
20260505230810 53 65 2.0 7.0 0.00 0.00 0.00 55 1011.6
20260505230312 53 76 3.0 6.0 0.00 0.00 0.00 55 1011.6
20260505225808 53 37 1.0 5.0 0.00 0.00 0.00 55 1011.7
20260505225309 54 45 2.0 7.0 0.00 0.00 0.00 55 1011.6
20260505224806 54 28 2.0 7.0 0.00 0.00 0.00 55 1011.7
20260505224307 54 66 2.0 6.0 0.00 0.00 0.00 55 1011.6
20260505224209 54 45 2.0 6.0 0.00 0.00 0.00 54 1011.6
20260505223310 54 25 3.0 5.0 0.00 0.00 0.00 54 1011.6
20260505222804 54 38 3.0 5.0 0.00 0.00 0.00 53 1011.6
20260505222306 54 68 2.0 4.0 0.00 0.00 0.00 53 1011.6
20260505221804 54 100 2.0 3.0 0.00 0.00 0.00 53 1011.4
20260505221304 54 1 1.0 3.0 0.00 0.00 0.00 53 1011.5
20260505220801 54 45 1.0 3.0 0.00 0.00 0.00 53 1011.4
20260505220306 55 331 1.0 3.0 0.00 0.00 0.00 53 1011.4
20260505215801 55 314 1.0 4.0 0.00 0.00 0.00 53 1011.4
20260505215706 55 45 1.0 4.0 0.00 0.00 0.00 52 1011.4
20260505215154 55 51 2.0 5.0 0.00 0.00 0.00 52 1011.5
20260505214259 55 210 2.0 5.0 0.00 0.00 0.00 52 1011.4
20260505213758 55 1 2.0 5.0 0.00 0.00 0.00 52 1011.4
20260505213658 55 296 2.0 5.0 0.00 0.00 0.00 52 1011.4
20260505212758 55 305 2.0 6.0 0.00 0.00 0.00 52 1011.3
20260505212701 55 152 3.0 6.0 0.00 0.00 0.00 52 1011.3
20260505212156 55 35 2.0 5.0 0.00 0.00 0.00 52 1011.4
20260505211700 55 10 1.0 5.0 0.00 0.00 0.00 52 1011.3
20260505210801 55 306 2.0 5.0 0.00 0.00 0.00 52 1011.2
20260505210259 55 16 2.0 5.0 0.00 0.00 0.00 52 1011.3
20260505205757 55 1 2.0 4.0 0.00 0.00 0.00 51 1011.2
20260505205258 56 52 2.0 5.0 0.00 0.00 0.00 52 1011.3
20260505205204 56 309 2.0 6.0 0.00 0.00 0.00 52 1011.2
20260505204257 56 269 2.0 6.0 0.00 0.00 0.00 52 1011.2
20260505204157 56 13 2.0 7.0 0.00 0.00 0.00 52 1011.1
20260505203257 56 39 3.0 7.0 0.00 0.00 0.00 52 1011.1
20260505202757 56 54 2.0 6.0 0.00 0.00 0.00 52 1011.0
20260505202259 56 35 1.0 6.0 0.00 0.00 0.00 51 1011.1
20260505201755 56 63 2.0 3.0 0.00 0.00 0.00 51 1011.0
20260505201258 56 300 1.0 4.0 0.00 0.00 0.00 51 1011.0
20260505200756 57 178 2.0 7.0 0.00 0.00 0.00 51 1011.1
20260505200259 57 49 2.0 7.0 0.00 0.00 0.00 50 1011.0
20260505195758 57 72 1.0 3.0 0.00 0.00 0.00 51 1010.9
20260505195258 57 89 0.0 3.0 0.00 0.00 0.00 50 1010.8
20260505194756 57 45 0.0 2.0 0.00 0.00 0.00 50 1010.8
20260505194258 57 45 0.0 3.0 0.00 0.00 0.00 50 1010.8
20260505194152 57 303 1.0 4.0 0.00 0.00 0.00 50 1010.7
20260505193705 57 223 2.0 4.0 0.00 0.00 0.00 50 1010.6
20260505192756 57 324 2.0 4.0 0.00 0.00 0.00 50 1010.6
20260505192257 57 296 2.0 4.0 0.00 0.00 0.00 50 1010.6
20260505191756 57 314 1.0 4.0 0.00 0.00 0.00 50 1010.6
20260505191317 57 314 1.0 4.0 0.00 0.00 0.00 50 1010.5
20260505190755 57 269 2.0 4.0 0.00 0.00 0.00 50 1010.5
20260505190659 57 331 1.0 4.0 0.00 0.00 0.00 49 1010.5
20260505185756 57 269 1.0 4.0 0.00 0.00 0.00 49 1010.4
20260505185257 57 331 1.0 5.0 0.00 0.00 0.00 49 1010.4
20260505184754 57 306 2.0 5.0 0.00 0.00 0.00 49 1010.4
20260505184256 57 296 2.0 5.0 0.00 0.00 0.00 49 1010.4
20260505183755 58 302 2.0 5.0 0.00 0.00 0.00 49 1010.4
20260505183256 58 327 1.0 4.0 0.00 0.00 0.00 49 1010.4
20260505183147 58 45 2.0 4.0 0.00 0.00 0.00 49 1010.4
20260505182255 58 1 1.0 5.0 0.00 0.00 0.00 49 1010.3
20260505181754 58 320 2.0 5.0 0.00 0.00 0.00 49 1010.3
20260505181257 58 45 1.0 5.0 0.00 0.00 0.00 49 1010.3
20260505180755 58 54 1.0 3.0 0.00 0.00 0.00 50 1010.4
20260505180255 58 209 2.0 3.0 0.00 0.00 0.00 50 1010.4
20260505175754 58 314 1.0 2.0 0.00 0.00 0.00 50 1010.4
20260505175255 57 331 0.0 3.0 0.00 0.00 0.00 51 1010.3
20260505174754 57 45 1.0 3.0 0.00 0.00 0.00 51 1010.4
20260505174254 57 178 1.0 3.0 0.00 0.00 0.00 51 1010.3
20260505173753 57 269 1.0 2.0 0.00 0.00 0.00 51 1010.4
20260505173254 58 1 0.0 2.0 0.00 0.00 0.00 51 1010.4
20260505172754 57 296 1.0 5.0 0.00 0.00 0.00 50 1010.4
20260505172254 58 331 2.0 5.0 0.00 0.00 0.00 50 1010.4
20260505172152 58 314 1.0 5.0 0.00 0.00 0.00 50 1010.4
20260505171253 58 28 1.0 5.0 0.00 0.00 0.00 50 1010.5
20260505171155 58 314 1.0 6.0 0.00 0.00 0.00 50 1010.5
20260505170308 58 269 2.0 6.0 0.00 0.00 0.00 50 1010.5
20260505165751 58 303 2.0 5.0 0.00 0.00 0.00 50 1010.6
20260505165255 58 324 1.0 4.0 0.00 0.00 0.00 49 1010.5
20260505164750 58 314 2.0 4.0 0.00 0.00 0.00 49 1010.5
20260505164253 58 334 2.0 4.0 0.00 0.00 0.00 49 1010.5
20260505164148 58 331 2.0 6.0 0.00 0.00 0.00 49 1010.5
20260505163656 59 197 2.0 6.0 0.00 0.00 0.00 48 1010.5
20260505162753 59 1 1.0 4.0 0.00 0.00 0.00 48 1010.6
20260505162657 59 314 2.0 4.0 0.00 0.00 0.00 48 1010.5
20260505161755 58 1 2.0 3.0 0.00 0.00 0.00 48 1010.5
20260505161255 58 223 2.0 4.0 0.00 0.00 0.00 48 1010.5
20260505160753 58 341 1.0 4.0 0.00 0.00 0.00 48 1010.6
20260505160253 58 28 2.0 3.0 0.00 0.00 0.00 48 1010.6
20260505153255 58 310 1.0 4.0 0.00 0.00 0.00 48 1010.6
20260505152752 58 314 1.0 4.0 0.00 0.00 0.00 48 1010.6
20260505152254 58 290 1.0 5.0 0.00 0.00 0.00 48 1010.6
20260505151752 58 347 1.0 5.0 0.00 0.00 0.00 48 1010.7
20260505151255 58 321 1.0 4.0 0.00 0.00 0.00 48 1010.8
20260505150752 58 316 2.0 4.0 0.00 0.00 0.00 48 1010.7
20260505150252 58 35 1.0 4.0 0.00 0.00 0.00 48 1010.7
20260505140152 58 314 1.0 5.0 0.00 0.00 0.00 49 1010.9
20260505124748 59 23 2.0 7.0 0.00 0.00 0.00 48 1011.2
20260505124423 59 69 2.0 5.0 0.00 0.00 0.00 49 1011.2
20260505123249 58 178 2.0 4.0 0.00 0.00 0.00 50 1011.3
20260505122748 58 35 1.0 3.0 0.00 0.00 0.00 50 1011.3
20260505122249 57 39 1.0 4.0 0.00 0.00 0.00 51 1011.3
20260505122152 57 317 2.0 4.0 0.00 0.00 0.00 51 1011.3
20260505121423 57 45 1.0 5.0 0.00 0.00 0.00 50 1011.3
20260505120250 58 72 2.0 5.0 0.00 0.00 0.00 51 1011.3
20260505115746 57 269 1.0 4.0 0.00 0.00 0.00 52 1011.3
20260505115247 57 314 1.0 5.0 0.00 0.00 0.00 52 1011.3
20260505114747 57 109 2.0 5.0 0.00 0.00 0.00 51 1011.3
20260505114247 56 286 1.0 4.0 0.00 0.00 0.00 51 1011.4
20260505114139 56 223 2.0 4.0 0.00 0.00 0.00 51 1011.4
20260505113247 56 314 2.0 4.0 0.00 0.00 0.00 51 1011.4
20260505112747 56 234 2.0 4.0 0.00 0.00 0.00 52 1011.5
20260505112248 56 16 1.0 4.0 0.00 0.00 0.00 52 1011.5
20260505111746 55 89 1.0 4.0 0.00 0.00 0.00 52 1011.6
20260505111249 55 45 1.0 4.0 0.00 0.00 0.00 52 1011.6
20260505110747 55 45 1.0 4.0 0.00 0.00 0.00 52 1011.6
20260505110248 55 1 1.0 5.0 0.00 0.00 0.00 52 1011.7
20260505102141 54 269 2.0 4.0 0.00 0.00 0.00 53 1011.8
20260505101418 54 45 2.0 4.0 0.00 0.00 0.00 53 1011.9
20260505100248 54 117 1.0 6.0 0.00 0.00 0.00 54 1011.9
20260505095920 54 312 2.0 6.0 0.00 0.00 0.00 55 1012.0
20260505094746 53 1 2.0 6.0 0.00 0.00 0.00 54 1012.0
20260505094249 53 54 2.0 6.0 0.00 0.00 0.00 54 1012.0
20260505093745 53 319 1.0 6.0 0.00 0.00 0.00 54 1012.0
20260505093246 53 45 2.0 5.0 0.00 0.00 0.00 54 1012.0
20260505092745 54 319 2.0 6.0 0.00 0.00 0.00 53 1012.0
20260505092247 54 303 2.0 6.0 0.00 0.00 0.00 53 1012.0
20260505091743 54 281 1.0 6.0 0.00 0.00 0.00 54 1012.0
20260505091651 54 307 2.0 6.0 0.00 0.00 0.00 53 1012.0
20260505090744 54 337 2.0 5.0 0.00 0.00 0.00 54 1012.0
20260505090244 54 8 2.0 4.0 0.00 0.00 0.00 54 1012.0
20260505090139 54 56 1.0 4.0 0.00 0.00 0.00 54 1012.0
20260505085245 54 327 1.0 5.0 0.00 0.00 0.00 54 1012.1
20260505084745 54 298 2.0 5.0 0.00 0.00 0.00 54 1012.1
20260505084242 54 1 2.0 5.0 0.00 0.00 0.00 54 1012.1
20260505083742 54 38 1.0 3.0 0.00 0.00 0.00 55 1012.2
20260505083636 53 28 1.0 4.0 0.00 0.00 0.00 55 1012.2
20260505083136 53 321 2.0 5.0 0.00 0.00 0.00 55 1012.3
20260505082241 53 20 2.0 5.0 0.00 0.00 0.00 55 1012.2
20260505081740 53 45 2.0 5.0 0.00 0.00 0.00 55 1012.1
20260505081242 53 314 2.0 5.0 0.00 0.00 0.00 54 1012.1
20260505080739 53 45 2.0 4.0 0.00 0.00 0.00 55 1012.1
20260505080239 53 314 1.0 5.0 0.00 0.00 0.00 55 1012.1
20260505075739 53 45 2.0 5.0 0.00 0.00 0.00 54 1012.1
20260505075241 53 45 2.0 5.0 0.00 0.00 0.00 54 1012.1
20260505074741 53 62 1.0 4.0 0.00 0.00 0.00 55 1012.1
20260505074239 53 1 1.0 4.0 0.00 0.00 0.00 55 1012.1
20260505073740 53 1 1.0 4.0 0.00 0.00 0.00 55 1012.1
20260505073238 53 269 2.0 3.0 0.00 0.00 0.00 56 1012.1
20260505072743 53 38 1.0 5.0 0.00 0.00 0.00 56 1012.1
20260505072636 53 341 2.0 5.0 0.00 0.00 0.00 55 1012.1
20260505071740 53 230 2.0 4.0 0.00 0.00 0.00 55 1012.1
20260505071240 53 269 2.0 4.0 0.00 0.00 0.00 55 1012.2
20260505070925 53 1 1.0 4.0 0.00 0.00 0.00 55 1012.2
20260505070834 53 62 2.0 4.0 0.00 0.00 0.00 55 1012.1
20260505065241 53 20 2.0 4.0 0.00 0.00 0.00 56 1012.1
20260505064740 53 321 2.0 4.0 0.00 0.00 0.00 56 1012.2
20260505064238 53 314 2.0 4.0 0.00 0.00 0.00 57 1012.2
20260505063739 53 321 1.0 4.0 0.00 0.00 0.00 57 1012.3
20260505063241 53 320 2.0 4.0 0.00 0.00 0.00 57 1012.2
20260505062740 53 314 1.0 3.0 0.00 0.00 0.00 58 1012.2
20260505062239 52 1 1.0 5.0 0.00 0.00 0.00 58 1012.2
20260505061740 52 306 1.0 5.0 0.00 0.00 0.00 59 1012.1
20260505061240 52 353 1.0 3.0 0.00 0.00 0.00 60 1012.1
20260505060741 52 135 0.0 3.0 0.00 0.00 0.00 60 1012.2
20260505060240 52 324 1.0 3.0 0.00 0.00 0.00 61 1012.1
20260505055738 52 1 1.0 3.0 0.00 0.00 0.00 61 1012.1
20260505055238 52 216 1.0 3.0 0.00 0.00 0.00 61 1012.1
20260505054740 52 310 2.0 3.0 0.00 0.00 0.00 61 1012.1
20260505054238 52 300 1.0 3.0 0.00 0.00 0.00 61 1012.1
20260505054119 51 89 1.0 3.0 0.00 0.00 0.00 61 1012.1
20260505053239 51 306 1.0 3.0 0.00 0.00 0.00 61 1012.2
20260505052741 51 296 1.0 3.0 0.00 0.00 0.00 61 1012.2
20260505052238 51 223 2.0 4.0 0.00 0.00 0.00 61 1012.2
20260505051737 51 321 1.0 4.0 0.00 0.00 0.00 61 1012.2
20260505051237 51 269 1.0 3.0 0.00 0.00 0.00 61 1012.2
20260505050736 51 319 1.0 3.0 0.00 0.00 0.00 61 1012.2
20260505050633 51 331 1.0 3.0 0.00 0.00 0.00 61 1012.2